| time (UTC) | temp F | wind direction | speed MPH | gust MPH | rain 1hr in | rain 24hr in | rain mn in | humidity % | barometer mb |
| 20260502164103 | 40 | 239 | 2.0 | 6.0 | 0.00 | 0.26 | 0.16 | 76 | 1017.9 |
| 20260502163924 | 40 | 237 | 2.0 | 6.0 | 0.00 | 0.26 | 0.16 | 74 | 1018.0 |
| 20260502163803 | 41 | 231 | 2.0 | 6.0 | 0.00 | 0.26 | 0.16 | 74 | 1018.0 |
| 20260502163603 | 40 | 158 | 1.0 | 3.0 | 0.00 | 0.26 | 0.16 | 76 | 1018.0 |
| 20260502163103 | 41 | 79 | 1.0 | 3.0 | 0.00 | 0.26 | 0.16 | 74 | 1017.9 |
| 20260502163003 | 41 | 68 | 1.0 | 3.0 | 0.00 | 0.26 | 0.16 | 74 | 1018.0 |
| 20260502162903 | 41 | 63 | 1.0 | 4.0 | 0.00 | 0.26 | 0.16 | 75 | 1017.8 |
| 20260502162703 | 40 | 61 | 1.0 | 4.0 | 0.00 | 0.26 | 0.16 | 78 | 1018.0 |
| 20260502162603 | 40 | 61 | 2.0 | 4.0 | 0.00 | 0.26 | 0.16 | 77 | 1017.8 |
| 20260502162524 | 40 | 61 | 2.0 | 4.0 | 0.00 | 0.26 | 0.16 | 77 | 1017.8 |
| 20260502162424 | 40 | 55 | 1.0 | 4.0 | 0.00 | 0.26 | 0.16 | 77 | 1017.9 |
| 20260502162203 | 40 | 43 | 1.0 | 4.0 | 0.00 | 0.27 | 0.16 | 77 | 1017.9 |
| 20260502162124 | 40 | 53 | 1.0 | 4.0 | 0.00 | 0.27 | 0.16 | 77 | 1017.9 |
| 20260502161803 | 41 | 86 | 1.0 | 4.0 | 0.00 | 0.27 | 0.16 | 77 | 1017.8 |
| 20260502161624 | 41 | 93 | 1.0 | 3.0 | 0.00 | 0.27 | 0.16 | 78 | 1017.9 |
| 20260502161403 | 40 | 90 | 1.0 | 3.0 | 0.00 | 0.27 | 0.16 | 77 | 1018.0 |
| 20260502161103 | 40 | 92 | 1.0 | 3.0 | 0.00 | 0.28 | 0.16 | 77 | 1018.0 |
| 20260502161003 | 40 | 94 | 1.0 | 3.0 | 0.00 | 0.28 | 0.16 | 76 | 1017.9 |
| 20260502160703 | 40 | 92 | 0.0 | 2.0 | 0.00 | 0.29 | 0.16 | 79 | 1018.0 |
| 20260502160624 | 40 | 94 | 0.0 | 2.0 | 0.00 | 0.29 | 0.16 | 80 | 1018.0 |
| 20260502152124 | 38 | 60 | 1.0 | 6.0 | 0.00 | 0.38 | 0.16 | 82 | 1017.8 |
| 20260502152003 | 38 | 62 | 2.0 | 6.0 | 0.00 | 0.38 | 0.16 | 83 | 1017.7 |
| 20260502151603 | 38 | 61 | 2.0 | 6.0 | 0.00 | 0.38 | 0.16 | 84 | 1017.9 |
| 20260502150924 | 38 | 64 | 1.0 | 6.0 | 0.00 | 0.39 | 0.16 | 85 | 1017.8 |
| 20260502150824 | 38 | 55 | 2.0 | 6.0 | 0.00 | 0.40 | 0.16 | 86 | 1017.5 |
| 20260502150603 | 38 | 56 | 2.0 | 6.0 | 0.00 | 0.41 | 0.16 | 86 | 1017.7 |
| 20260502130624 | 36 | 49 | 1.0 | 6.0 | 0.01 | 0.50 | 0.16 | 95 | 1016.9 |
| 20260502130503 | 36 | 45 | 1.0 | 6.0 | 0.01 | 0.50 | 0.16 | 95 | 1017.0 |
| 20260502123803 | 36 | 60 | 0.0 | 2.0 | 0.02 | 0.50 | 0.16 | 96 | 1017.1 |
| 20260502123603 | 36 | 0 | 0.0 | 0.0 | 0.02 | 0.50 | 0.16 | 96 | 1016.9 |
| 20260502123402 | 36 | 0 | 0.0 | 0.0 | 0.02 | 0.51 | 0.16 | 96 | 1017.0 |
| 20260502123203 | 36 | 0 | 0.0 | 0.0 | 0.03 | 0.51 | 0.16 | 96 | 1017.1 |
| 20260502123103 | 36 | 0 | 0.0 | 0.0 | 0.03 | 0.51 | 0.16 | 96 | 1016.9 |
| 20260502122903 | 36 | 0 | 0.0 | 0.0 | 0.03 | 0.51 | 0.16 | 96 | 1016.8 |
| 20260502122702 | 36 | 0 | 0.0 | 0.0 | 0.03 | 0.51 | 0.16 | 96 | 1017.0 |
| 20260502122624 | 35 | 0 | 0.0 | 0.0 | 0.03 | 0.51 | 0.16 | 96 | 1017.0 |
| 20260502122503 | 35 | 0 | 0.0 | 0.0 | 0.03 | 0.51 | 0.16 | 96 | 1016.9 |
| 20260502122103 | 35 | 109 | 0.0 | 1.0 | 0.04 | 0.51 | 0.16 | 96 | 1016.8 |
| 20260502121903 | 35 | 109 | 0.0 | 1.0 | 0.04 | 0.51 | 0.16 | 96 | 1016.9 |
| 20260502121703 | 35 | 118 | 0.0 | 2.0 | 0.04 | 0.51 | 0.16 | 96 | 1016.8 |
| 20260502121603 | 35 | 118 | 0.0 | 2.0 | 0.04 | 0.51 | 0.16 | 96 | 1016.9 |
| 20260502121403 | 35 | 118 | 0.0 | 2.0 | 0.05 | 0.51 | 0.16 | 96 | 1016.9 |
| 20260502121224 | 35 | 121 | 0.0 | 2.0 | 0.05 | 0.51 | 0.16 | 96 | 1016.8 |
| 20260502120824 | 35 | 123 | 0.0 | 2.0 | 0.04 | 0.50 | 0.15 | 95 | 1016.8 |
| 20260502120503 | 35 | 0 | 0.0 | 0.0 | 0.05 | 0.50 | 0.15 | 95 | 1016.7 |
| 20260502120424 | 35 | 0 | 0.0 | 0.0 | 0.05 | 0.50 | 0.15 | 95 | 1016.6 |
| 20260502120124 | 35 | 102 | 0.0 | 1.0 | 0.05 | 0.50 | 0.15 | 95 | 1016.7 |
| 20260502115903 | 34 | 102 | 0.0 | 1.0 | 0.05 | 0.50 | 0.15 | 95 | 1016.6 |
| 20260502115603 | 34 | 101 | 0.0 | 1.0 | 0.06 | 0.50 | 0.15 | 95 | 1016.8 |
| 20260502115403 | 34 | 101 | 0.0 | 1.0 | 0.06 | 0.50 | 0.15 | 95 | 1016.7 |
| 20260502114724 | 34 | 100 | 0.0 | 1.0 | 0.06 | 0.50 | 0.15 | 95 | 1016.6 |
| 20260502114524 | 34 | 99 | 0.0 | 1.0 | 0.05 | 0.49 | 0.15 | 95 | 1016.6 |
| 20260502114402 | 34 | 99 | 0.0 | 1.0 | 0.05 | 0.49 | 0.14 | 95 | 1016.7 |
| 20260502114103 | 34 | 0 | 0.0 | 0.0 | 0.05 | 0.49 | 0.14 | 95 | 1016.6 |
| 20260502113903 | 34 | 0 | 0.0 | 0.0 | 0.06 | 0.49 | 0.14 | 95 | 1016.6 |
| 20260502113803 | 34 | 0 | 0.0 | 0.0 | 0.06 | 0.49 | 0.14 | 95 | 1016.7 |
| 20260502113703 | 34 | 107 | 0.0 | 1.0 | 0.06 | 0.49 | 0.14 | 95 | 1016.7 |
| 20260502113503 | 34 | 106 | 0.0 | 1.0 | 0.06 | 0.49 | 0.14 | 95 | 1016.7 |
| 20260502113124 | 34 | 95 | 0.0 | 2.0 | 0.05 | 0.48 | 0.13 | 95 | 1016.7 |
| 20260502112703 | 34 | 62 | 1.0 | 4.0 | 0.05 | 0.48 | 0.13 | 95 | 1016.7 |
| 20260502112603 | 34 | 62 | 1.0 | 4.0 | 0.05 | 0.48 | 0.13 | 95 | 1016.5 |
| 20260502111903 | 35 | 60 | 1.0 | 4.0 | 0.05 | 0.47 | 0.12 | 95 | 1016.6 |
| 20260502111824 | 35 | 59 | 1.0 | 4.0 | 0.05 | 0.47 | 0.12 | 95 | 1016.7 |
| 20260502111724 | 35 | 70 | 1.0 | 3.0 | 0.05 | 0.47 | 0.12 | 95 | 1016.7 |
| 20260502111603 | 35 | 73 | 1.0 | 2.0 | 0.05 | 0.47 | 0.12 | 95 | 1016.8 |
| 20260502111403 | 35 | 72 | 0.0 | 2.0 | 0.04 | 0.46 | 0.11 | 95 | 1016.6 |
| 20260502111303 | 35 | 72 | 0.0 | 2.0 | 0.04 | 0.46 | 0.11 | 95 | 1016.8 |
| 20260502111203 | 35 | 73 | 1.0 | 2.0 | 0.04 | 0.46 | 0.11 | 95 | 1016.7 |
| 20260502111103 | 36 | 68 | 0.0 | 2.0 | 0.04 | 0.46 | 0.11 | 95 | 1016.8 |
| 20260502110903 | 36 | 83 | 0.0 | 2.0 | 0.04 | 0.46 | 0.11 | 95 | 1016.7 |
| 20260502110824 | 36 | 82 | 0.0 | 2.0 | 0.05 | 0.46 | 0.11 | 95 | 1016.6 |
| 20260502110703 | 36 | 79 | 0.0 | 2.0 | 0.04 | 0.45 | 0.10 | 95 | 1016.5 |
| 20260502110603 | 36 | 69 | 0.0 | 2.0 | 0.04 | 0.45 | 0.10 | 94 | 1016.5 |
| 20260502105803 | 36 | 86 | 0.0 | 1.0 | 0.03 | 0.44 | 0.09 | 94 | 1016.5 |
| 20260502105703 | 36 | 81 | 0.0 | 2.0 | 0.04 | 0.44 | 0.09 | 94 | 1016.5 |
| 20260502105603 | 36 | 78 | 1.0 | 2.0 | 0.04 | 0.44 | 0.09 | 94 | 1016.7 |
| 20260502105403 | 36 | 71 | 1.0 | 3.0 | 0.04 | 0.44 | 0.09 | 94 | 1016.5 |
| 20260502105203 | 36 | 72 | 1.0 | 3.0 | 0.04 | 0.44 | 0.09 | 94 | 1016.5 |
| 20260502105103 | 36 | 73 | 1.0 | 3.0 | 0.04 | 0.44 | 0.09 | 94 | 1016.6 |
| 20260502104803 | 36 | 75 | 1.0 | 3.0 | 0.04 | 0.44 | 0.09 | 94 | 1016.2 |
| 20260502104703 | 36 | 77 | 1.0 | 3.0 | 0.04 | 0.44 | 0.09 | 94 | 1016.5 |
| 20260502104603 | 36 | 78 | 1.0 | 3.0 | 0.04 | 0.44 | 0.09 | 94 | 1016.2 |
| 20260502104503 | 37 | 82 | 1.0 | 3.0 | 0.05 | 0.44 | 0.09 | 94 | 1016.4 |
| 20260502104303 | 37 | 88 | 0.0 | 2.0 | 0.05 | 0.44 | 0.09 | 94 | 1016.4 |
| 20260502104103 | 37 | 88 | 0.0 | 2.0 | 0.05 | 0.44 | 0.09 | 94 | 1016.2 |
| 20260502103303 | 36 | 86 | 0.0 | 2.0 | 0.04 | 0.43 | 0.08 | 94 | 1016.1 |
| 20260502102924 | 37 | 90 | 0.0 | 2.0 | 0.05 | 0.43 | 0.08 | 94 | 1016.1 |
| 20260502102803 | 37 | 93 | 0.0 | 2.0 | 0.05 | 0.43 | 0.08 | 94 | 1015.9 |
| 20260502102603 | 37 | 93 | 0.0 | 2.0 | 0.05 | 0.43 | 0.08 | 94 | 1016.1 |
| 20260502102403 | 37 | 94 | 0.0 | 2.0 | 0.04 | 0.42 | 0.07 | 94 | 1016.0 |
| 20260502102103 | 37 | 0 | 0.0 | 0.0 | 0.04 | 0.42 | 0.07 | 94 | 1016.2 |
| 20260502102003 | 37 | 0 | 0.0 | 0.0 | 0.04 | 0.42 | 0.07 | 94 | 1016.2 |
| 20260502101903 | 37 | 0 | 0.0 | 0.0 | 0.04 | 0.42 | 0.07 | 94 | 1016.0 |
| 20260502101224 | 37 | 110 | 0.0 | 1.0 | 0.04 | 0.42 | 0.07 | 94 | 1016.0 |
| 20260502101103 | 36 | 106 | 0.0 | 1.0 | 0.04 | 0.42 | 0.07 | 94 | 1016.1 |
| 20260502101003 | 36 | 106 | 0.0 | 1.0 | 0.04 | 0.42 | 0.07 | 94 | 1015.9 |
| 20260502100903 | 36 | 106 | 0.0 | 1.0 | 0.04 | 0.42 | 0.07 | 94 | 1016.0 |
| 20260502100703 | 36 | 105 | 0.0 | 1.0 | 0.03 | 0.41 | 0.06 | 94 | 1016.2 |
| 20260502100603 | 36 | 104 | 0.0 | 1.0 | 0.03 | 0.41 | 0.06 | 94 | 1016.1 |
| 20260502100303 | 37 | 99 | 0.0 | 1.0 | 0.03 | 0.41 | 0.06 | 94 | 1016.1 |
| 20260502091403 | 37 | 85 | 1.0 | 2.0 | 0.00 | 0.38 | 0.03 | 94 | 1015.7 |
| 20260502091103 | 37 | 95 | 0.0 | 2.0 | 0.00 | 0.38 | 0.03 | 94 | 1015.5 |
| 20260502091024 | 37 | 94 | 0.0 | 2.0 | 0.00 | 0.38 | 0.03 | 95 | 1015.9 |
| 20260502090603 | 38 | 0 | 0.0 | 0.0 | 0.00 | 0.38 | 0.03 | 95 | 1015.6 |
| 20260502090424 | 38 | 0 | 0.0 | 0.0 | 0.00 | 0.38 | 0.03 | 95 | 1015.5 |
| 20260502090203 | 38 | 0 | 0.0 | 0.0 | 0.00 | 0.38 | 0.03 | 95 | 1015.6 |
| 20260502071503 | 38 | 249 | 1.0 | 3.0 | 0.00 | 0.38 | 0.03 | 94 | 1015.7 |
| 20260502071303 | 38 | 271 | 1.0 | 3.0 | 0.00 | 0.38 | 0.03 | 94 | 1015.7 |
| 20260502071103 | 38 | 283 | 0.0 | 2.0 | 0.00 | 0.38 | 0.03 | 94 | 1015.9 |
| 20260502071003 | 38 | 291 | 0.0 | 2.0 | 0.00 | 0.38 | 0.03 | 94 | 1015.9 |
| 20260502070924 | 38 | 0 | 0.0 | 0.0 | 0.00 | 0.38 | 0.03 | 94 | 1015.7 |
| 20260502070603 | 39 | 0 | 0.0 | 0.0 | 0.00 | 0.38 | 0.03 | 94 | 1015.6 |
| 20260502070403 | 38 | 0 | 0.0 | 0.0 | 0.00 | 0.38 | 0.03 | 94 | 1015.6 |
| 20260502065903 | 38 | 0 | 0.0 | 0.0 | 0.00 | 0.38 | 0.03 | 94 | 1015.7 |
| 20260502065803 | 38 | 0 | 0.0 | 0.0 | 0.00 | 0.38 | 0.03 | 94 | 1015.9 |
| 20260502065724 | 38 | 0 | 0.0 | 0.0 | 0.00 | 0.38 | 0.03 | 94 | 1015.7 |
| 20260502065403 | 38 | 0 | 0.0 | 0.0 | 0.00 | 0.38 | 0.03 | 94 | 1015.6 |
| 20260502065306 | 38 | 0 | 0.0 | 0.0 | 0.00 | 0.38 | 0.03 | 94 | 1015.6 |
| 20260502064703 | 38 | 0 | 0.0 | 0.0 | 0.00 | 0.38 | 0.03 | 94 | 1015.5 |
| 20260502064603 | 38 | 122 | 0.0 | 1.0 | 0.00 | 0.38 | 0.03 | 94 | 1015.5 |
| 20260502064503 | 38 | 124 | 0.0 | 1.0 | 0.00 | 0.38 | 0.03 | 94 | 1015.7 |
| 20260502064403 | 38 | 116 | 0.0 | 1.0 | 0.00 | 0.38 | 0.03 | 94 | 1015.7 |
| 20260502064303 | 38 | 116 | 0.0 | 1.0 | 0.01 | 0.38 | 0.03 | 94 | 1015.5 |
| 20260502064024 | 38 | 115 | 0.0 | 1.0 | 0.01 | 0.38 | 0.03 | 94 | 1015.7 |
| 20260502063403 | 38 | 112 | 0.0 | 1.0 | 0.01 | 0.38 | 0.03 | 94 | 1015.6 |
| 20260502063303 | 38 | 112 | 0.0 | 1.0 | 0.01 | 0.38 | 0.03 | 94 | 1015.7 |
| 20260502063103 | 38 | 113 | 0.0 | 1.0 | 0.01 | 0.38 | 0.03 | 94 | 1015.7 |
| 20260502062903 | 39 | 113 | 0.0 | 1.0 | 0.01 | 0.38 | 0.03 | 94 | 1015.7 |
| 20260502062703 | 38 | 0 | 0.0 | 0.0 | 0.01 | 0.38 | 0.03 | 94 | 1015.9 |
| 20260502062403 | 38 | 0 | 0.0 | 0.0 | 0.01 | 0.38 | 0.03 | 94 | 1015.7 |
| 20260502062306 | 38 | 0 | 0.0 | 0.0 | 0.01 | 0.38 | 0.03 | 94 | 1016.0 |
| 20260502062103 | 38 | 0 | 0.0 | 0.0 | 0.01 | 0.38 | 0.03 | 94 | 1016.0 |
| 20260502062003 | 38 | 0 | 0.0 | 0.0 | 0.01 | 0.38 | 0.03 | 94 | 1015.7 |
| 20260502061824 | 38 | 0 | 0.0 | 0.0 | 0.01 | 0.38 | 0.03 | 94 | 1015.9 |
| 20260502061603 | 38 | 0 | 0.0 | 0.0 | 0.01 | 0.38 | 0.03 | 94 | 1016.0 |
| 20260502061403 | 38 | 0 | 0.0 | 0.0 | 0.01 | 0.38 | 0.03 | 94 | 1016.0 |
| 20260502061303 | 38 | 0 | 0.0 | 0.0 | 0.01 | 0.38 | 0.03 | 94 | 1016.1 |
| 20260502061203 | 38 | 0 | 0.0 | 0.0 | 0.01 | 0.38 | 0.03 | 94 | 1016.3 |
| 20260502060903 | 38 | 0 | 0.0 | 0.0 | 0.01 | 0.38 | 0.03 | 94 | 1016.1 |
| 20260502060603 | 38 | 0 | 0.0 | 0.0 | 0.01 | 0.38 | 0.03 | 94 | 1016.3 |
| 20260502060303 | 38 | 0 | 0.0 | 0.0 | 0.01 | 0.38 | 0.03 | 94 | 1016.4 |
| 20260502060203 | 38 | 0 | 0.0 | 0.0 | 0.01 | 0.38 | 0.03 | 94 | 1016.1 |
| 20260502060003 | 38 | 0 | 0.0 | 0.0 | 0.02 | 0.38 | 0.03 | 94 | 1016.3 |
| 20260502055903 | 38 | 0 | 0.0 | 0.0 | 0.02 | 0.38 | 0.03 | 94 | 1016.4 |
| 20260502055124 | 38 | 0 | 0.0 | 0.0 | 0.02 | 0.38 | 0.03 | 94 | 1016.6 |
| 20260502054903 | 38 | 0 | 0.0 | 0.0 | 0.02 | 0.38 | 0.03 | 94 | 1016.4 |
| 20260502054403 | 39 | 0 | 0.0 | 0.0 | 0.02 | 0.38 | 0.03 | 94 | 1016.3 |
| 20260502054203 | 39 | 0 | 0.0 | 0.0 | 0.01 | 0.37 | 0.02 | 94 | 1016.3 |
| 20260502054103 | 39 | 0 | 0.0 | 0.0 | 0.01 | 0.37 | 0.02 | 94 | 1016.5 |
| 20260502053903 | 39 | 0 | 0.0 | 0.0 | 0.01 | 0.37 | 0.02 | 94 | 1016.4 |
| 20260502053803 | 39 | 0 | 0.0 | 0.0 | 0.01 | 0.37 | 0.02 | 94 | 1016.2 |
| 20260502053603 | 39 | 86 | 0.0 | 1.0 | 0.01 | 0.37 | 0.02 | 94 | 1016.5 |
| 20260502053503 | 39 | 86 | 0.0 | 1.0 | 0.01 | 0.37 | 0.02 | 94 | 1016.4 |
| 20260502053403 | 39 | 86 | 0.0 | 1.0 | 0.01 | 0.37 | 0.02 | 94 | 1016.6 |
| 20260502053103 | 39 | 86 | 0.0 | 1.0 | 0.01 | 0.37 | 0.02 | 94 | 1016.5 |
| 20260502053003 | 39 | 86 | 0.0 | 1.0 | 0.01 | 0.37 | 0.02 | 94 | 1016.4 |
| 20260502052903 | 39 | 90 | 0.0 | 1.0 | 0.01 | 0.37 | 0.02 | 94 | 1016.6 |
| 20260502052703 | 39 | 88 | 0.0 | 1.0 | 0.01 | 0.37 | 0.02 | 94 | 1016.5 |
| 20260502052003 | 39 | 101 | 0.0 | 2.0 | 0.02 | 0.37 | 0.02 | 94 | 1016.6 |
| 20260502051803 | 39 | 96 | 0.0 | 2.0 | 0.02 | 0.37 | 0.02 | 94 | 1016.9 |
| 20260502051603 | 39 | 89 | 1.0 | 3.0 | 0.02 | 0.37 | 0.02 | 94 | 1016.6 |
| 20260502051403 | 39 | 86 | 1.0 | 3.0 | 0.02 | 0.37 | 0.02 | 94 | 1016.5 |
| 20260502051303 | 39 | 83 | 1.0 | 3.0 | 0.02 | 0.37 | 0.02 | 94 | 1016.6 |
| 20260502051103 | 39 | 77 | 1.0 | 3.0 | 0.02 | 0.37 | 0.02 | 94 | 1016.6 |
| 20260502050903 | 39 | 66 | 1.0 | 3.0 | 0.02 | 0.37 | 0.02 | 94 | 1016.5 |
| 20260502050824 | 39 | 63 | 1.0 | 3.0 | 0.02 | 0.37 | 0.02 | 94 | 1016.4 |
| 20260502050603 | 39 | 52 | 0.0 | 3.0 | 0.02 | 0.37 | 0.02 | 94 | 1016.5 |
| 20260502050524 | 39 | 44 | 0.0 | 3.0 | 0.02 | 0.37 | 0.02 | 94 | 1016.7 |
| 20260502050203 | 39 | 24 | 0.0 | 3.0 | 0.02 | 0.37 | 0.02 | 94 | 1016.6 |
| 20260502045903 | 39 | 83 | 0.0 | 1.0 | 0.01 | 0.36 | 0.01 | 94 | 1016.6 |
| 20260502045603 | 39 | 86 | 0.0 | 1.0 | 0.01 | 0.36 | 0.01 | 94 | 1016.7 |
| 20260502045424 | 39 | 88 | 0.0 | 1.0 | 0.01 | 0.36 | 0.01 | 94 | 1016.7 |
| 20260502045305 | 39 | 87 | 0.0 | 2.0 | 0.01 | 0.36 | 0.01 | 94 | 1016.6 |
| 20260502045203 | 39 | 88 | 0.0 | 2.0 | 0.01 | 0.36 | 0.01 | 94 | 1016.6 |
| 20260502045103 | 39 | 84 | 0.0 | 2.0 | 0.01 | 0.36 | 0.01 | 94 | 1016.8 |
| 20260502044803 | 39 | 81 | 0.0 | 2.0 | 0.01 | 0.36 | 0.01 | 94 | 1016.7 |
| 20260502044403 | 39 | 78 | 0.0 | 2.0 | 0.01 | 0.36 | 0.01 | 94 | 1016.8 |
| 20260502043903 | 39 | 95 | 0.0 | 1.0 | 0.01 | 0.36 | 0.01 | 94 | 1016.6 |
| 20260502043603 | 39 | 95 | 0.0 | 1.0 | 0.01 | 0.36 | 0.01 | 94 | 1016.5 |
| 20260502043403 | 40 | 78 | 0.0 | 2.0 | 0.01 | 0.36 | 0.01 | 94 | 1016.7 |
| 20260502043303 | 40 | 74 | 0.0 | 2.0 | 0.01 | 0.36 | 0.01 | 94 | 1016.8 |
| 20260502043103 | 40 | 81 | 0.0 | 2.0 | 0.01 | 0.36 | 0.01 | 94 | 1016.6 |
| 20260502042903 | 40 | 81 | 0.0 | 2.0 | 0.01 | 0.36 | 0.01 | 94 | 1016.6 |
| 20260502042703 | 40 | 81 | 0.0 | 2.0 | 0.01 | 0.36 | 0.01 | 94 | 1016.6 |
| 20260502042403 | 40 | 88 | 0.0 | 1.0 | 0.01 | 0.36 | 0.01 | 94 | 1016.7 |
| 20260502042103 | 40 | 0 | 0.0 | 0.0 | 0.00 | 0.35 | 0.00 | 94 | 1016.6 |
| 20260502041903 | 40 | 0 | 0.0 | 0.0 | 0.00 | 0.35 | 0.00 | 94 | 1016.6 |
| 20260502041703 | 40 | 0 | 0.0 | 0.0 | 0.00 | 0.35 | 0.00 | 94 | 1016.8 |
| 20260502041603 | 40 | 137 | 0.0 | 1.0 | 0.00 | 0.35 | 0.00 | 94 | 1016.7 |
| 20260502041103 | 40 | 136 | 0.0 | 1.0 | 0.00 | 0.35 | 0.00 | 94 | 1016.8 |
| 20260502040803 | 40 | 144 | 0.0 | 2.0 | 0.00 | 0.35 | 0.00 | 94 | 1016.8 |
| 20260502040603 | 40 | 146 | 0.0 | 2.0 | 0.00 | 0.35 | 0.00 | 94 | 1016.8 |
| 20260502040503 | 40 | 144 | 0.0 | 2.0 | 0.00 | 0.35 | 0.00 | 94 | 1016.8 |
| 20260502040403 | 40 | 146 | 0.0 | 2.0 | 0.00 | 0.35 | 0.00 | 94 | 1016.9 |
| 20260502035624 | 40 | 131 | 0.0 | 1.0 | 0.00 | 0.35 | 0.35 | 94 | 1016.6 |
| 20260502035503 | 40 | 131 | 0.0 | 1.0 | 0.00 | 0.35 | 0.35 | 95 | 1016.5 |
| 20260502035403 | 40 | 131 | 0.0 | 1.0 | 0.00 | 0.35 | 0.35 | 95 | 1016.5 |
| 20260502035103 | 40 | 125 | 0.0 | 1.0 | 0.00 | 0.35 | 0.35 | 95 | 1016.6 |
| 20260502034724 | 39 | 0 | 0.0 | 0.0 | 0.00 | 0.35 | 0.35 | 95 | 1016.6 |
| 20260502034503 | 39 | 0 | 0.0 | 0.0 | 0.00 | 0.35 | 0.35 | 95 | 1016.4 |
| 20260502034303 | 39 | 0 | 0.0 | 0.0 | 0.00 | 0.35 | 0.35 | 95 | 1016.3 |
| 20260502034203 | 39 | 0 | 0.0 | 0.0 | 0.00 | 0.35 | 0.35 | 95 | 1016.6 |
| 20260502034103 | 39 | 0 | 0.0 | 0.0 | 0.00 | 0.35 | 0.35 | 95 | 1016.4 |
| 20260502033903 | 39 | 0 | 0.0 | 0.0 | 0.00 | 0.35 | 0.35 | 95 | 1016.3 |
| 20260502033703 | 39 | 0 | 0.0 | 0.0 | 0.00 | 0.35 | 0.35 | 95 | 1016.3 |
| 20260502033403 | 39 | 87 | 0.0 | 1.0 | 0.00 | 0.35 | 0.35 | 95 | 1016.5 |
| 20260502033303 | 39 | 86 | 0.0 | 1.0 | 0.00 | 0.35 | 0.35 | 95 | 1016.4 |
| 20260502033103 | 39 | 86 | 0.0 | 1.0 | 0.00 | 0.35 | 0.35 | 95 | 1016.4 |
| 20260502032903 | 39 | 86 | 0.0 | 1.0 | 0.00 | 0.35 | 0.35 | 95 | 1016.3 |
| 20260502032424 | 39 | 84 | 0.0 | 1.0 | 0.00 | 0.35 | 0.35 | 95 | 1016.4 |
| 20260502031803 | 39 | 0 | 0.0 | 0.0 | 0.00 | 0.35 | 0.35 | 95 | 1016.2 |
| 20260502031624 | 39 | 0 | 0.0 | 0.0 | 0.00 | 0.35 | 0.35 | 95 | 1016.1 |
| 20260502031503 | 39 | 0 | 0.0 | 0.0 | 0.00 | 0.35 | 0.35 | 95 | 1016.1 |
| 20260502031403 | 39 | 0 | 0.0 | 0.0 | 0.00 | 0.35 | 0.35 | 94 | 1016.3 |
| 20260502031303 | 39 | 0 | 0.0 | 0.0 | 0.00 | 0.35 | 0.35 | 94 | 1016.2 |
| 20260502031203 | 39 | 0 | 0.0 | 0.0 | 0.00 | 0.35 | 0.35 | 94 | 1016.1 |
| 20260502031003 | 39 | 0 | 0.0 | 0.0 | 0.00 | 0.35 | 0.35 | 94 | 1016.3 |
| 20260502030624 | 39 | 0 | 0.0 | 0.0 | 0.00 | 0.35 | 0.35 | 94 | 1016.2 |
| 20260502030503 | 39 | 0 | 0.0 | 0.0 | 0.00 | 0.35 | 0.35 | 94 | 1016.0 |
| 20260502030403 | 39 | 0 | 0.0 | 0.0 | 0.00 | 0.35 | 0.35 | 94 | 1016.2 |
| 20260502025603 | 39 | 0 | 0.0 | 0.0 | 0.00 | 0.35 | 0.35 | 94 | 1016.1 |
| 20260502025424 | 39 | 0 | 0.0 | 0.0 | 0.00 | 0.35 | 0.35 | 94 | 1016.2 |
| 20260502025124 | 39 | 0 | 0.0 | 0.0 | 0.00 | 0.35 | 0.35 | 94 | 1016.1 |
| 20260502024603 | 39 | 0 | 0.0 | 0.0 | 0.00 | 0.35 | 0.35 | 94 | 1016.3 |
| 20260502024503 | 39 | 0 | 0.0 | 0.0 | 0.00 | 0.35 | 0.35 | 94 | 1016.2 |
| 20260502024403 | 39 | 0 | 0.0 | 0.0 | 0.00 | 0.35 | 0.35 | 94 | 1016.2 |
| 20260502024003 | 39 | 0 | 0.0 | 0.0 | 0.00 | 0.35 | 0.35 | 94 | 1016.2 |
| 20260502023103 | 39 | 0 | 0.0 | 0.0 | 0.00 | 0.35 | 0.35 | 94 | 1016.2 |
| 20260502022403 | 38 | 0 | 0.0 | 0.0 | 0.00 | 0.35 | 0.35 | 94 | 1016.2 |
| 20260502022306 | 38 | 0 | 0.0 | 0.0 | 0.00 | 0.35 | 0.35 | 94 | 1016.3 |
| 20260502021703 | 38 | 0 | 0.0 | 0.0 | 0.00 | 0.35 | 0.35 | 94 | 1016.2 |
| 20260502021224 | 38 | 0 | 0.0 | 0.0 | 0.00 | 0.35 | 0.35 | 94 | 1016.1 |
| 20260502021103 | 38 | 0 | 0.0 | 0.0 | 0.00 | 0.35 | 0.35 | 94 | 1016.1 |
| 20260502020903 | 38 | 0 | 0.0 | 0.0 | 0.00 | 0.35 | 0.35 | 94 | 1016.1 |
| 20260502020603 | 38 | 0 | 0.0 | 0.0 | 0.00 | 0.35 | 0.35 | 94 | 1015.9 |
| 20260502020203 | 38 | 0 | 0.0 | 0.0 | 0.00 | 0.35 | 0.35 | 94 | 1016.1 |
| 20260502020124 | 38 | 0 | 0.0 | 0.0 | 0.00 | 0.35 | 0.35 | 94 | 1016.3 |
| 20260502020003 | 38 | 0 | 0.0 | 0.0 | 0.00 | 0.35 | 0.35 | 94 | 1016.2 |
| 20260502015403 | 38 | 119 | 0.0 | 1.0 | 0.00 | 0.35 | 0.35 | 94 | 1016.2 |
| 20260502015324 | 38 | 119 | 0.0 | 1.0 | 0.00 | 0.35 | 0.35 | 94 | 1016.2 |
| 20260502015103 | 38 | 119 | 0.0 | 1.0 | 0.00 | 0.35 | 0.35 | 93 | 1016.1 |
| 20260502014903 | 38 | 119 | 0.0 | 1.0 | 0.00 | 0.35 | 0.35 | 93 | 1016.0 |
| 20260502014724 | 38 | 0 | 0.0 | 0.0 | 0.00 | 0.35 | 0.35 | 93 | 1016.0 |
| 20260502014603 | 38 | 0 | 0.0 | 0.0 | 0.00 | 0.35 | 0.35 | 93 | 1016.1 |
| 20260502014403 | 38 | 0 | 0.0 | 0.0 | 0.00 | 0.35 | 0.35 | 93 | 1016.1 |
| 20260502014324 | 38 | 0 | 0.0 | 0.0 | 0.00 | 0.35 | 0.35 | 93 | 1016.1 |
| 20260502014124 | 38 | 0 | 0.0 | 0.0 | 0.00 | 0.35 | 0.35 | 93 | 1016.1 |
| 20260502013903 | 38 | 0 | 0.0 | 0.0 | 0.00 | 0.35 | 0.35 | 93 | 1016.0 |
| 20260502013803 | 38 | 0 | 0.0 | 0.0 | 0.00 | 0.35 | 0.35 | 93 | 1016.2 |
| 20260502013603 | 38 | 0 | 0.0 | 0.0 | 0.00 | 0.35 | 0.35 | 92 | 1016.0 |
| 20260502013424 | 38 | 0 | 0.0 | 0.0 | 0.00 | 0.35 | 0.35 | 92 | 1016.1 |
| 20260502013303 | 38 | 0 | 0.0 | 0.0 | 0.00 | 0.35 | 0.35 | 92 | 1015.9 |
| 20260502013203 | 38 | 0 | 0.0 | 0.0 | 0.00 | 0.35 | 0.35 | 92 | 1015.9 |
| 20260502013103 | 38 | 0 | 0.0 | 0.0 | 0.00 | 0.35 | 0.35 | 92 | 1015.7 |
| 20260502013003 | 38 | 0 | 0.0 | 0.0 | 0.00 | 0.35 | 0.35 | 92 | 1015.6 |
| 20260502012603 | 38 | 0 | 0.0 | 0.0 | 0.00 | 0.35 | 0.35 | 92 | 1015.9 |
| 20260502012424 | 38 | 0 | 0.0 | 0.0 | 0.00 | 0.35 | 0.35 | 92 | 1015.7 |
| 20260502012003 | 38 | 108 | 0.0 | 1.0 | 0.00 | 0.35 | 0.35 | 92 | 1015.6 |
| 20260502011824 | 38 | 108 | 0.0 | 1.0 | 0.00 | 0.35 | 0.35 | 92 | 1015.9 |
| 20260502011603 | 38 | 108 | 0.0 | 1.0 | 0.00 | 0.35 | 0.35 | 91 | 1015.7 |
| 20260502011303 | 38 | 108 | 0.0 | 1.0 | 0.00 | 0.35 | 0.35 | 91 | 1015.7 |
| 20260502011203 | 38 | 108 | 0.0 | 1.0 | 0.00 | 0.35 | 0.35 | 91 | 1015.6 |
| 20260502011103 | 38 | 108 | 0.0 | 1.0 | 0.00 | 0.35 | 0.35 | 91 | 1015.4 |
| 20260502010503 | 38 | 0 | 0.0 | 0.0 | 0.00 | 0.35 | 0.35 | 90 | 1015.5 |
| 20260502010303 | 38 | 0 | 0.0 | 0.0 | 0.00 | 0.35 | 0.35 | 90 | 1015.5 |
| 20260502005924 | 38 | 0 | 0.0 | 0.0 | 0.00 | 0.35 | 0.35 | 89 | 1015.6 |
| 20260502005603 | 39 | 0 | 0.0 | 0.0 | 0.00 | 0.35 | 0.35 | 89 | 1015.5 |
| 20260502005324 | 39 | 0 | 0.0 | 0.0 | 0.00 | 0.35 | 0.35 | 88 | 1015.6 |
| 20260502005203 | 39 | 0 | 0.0 | 0.0 | 0.00 | 0.35 | 0.35 | 88 | 1015.5 |
| 20260502005003 | 39 | 0 | 0.0 | 0.0 | 0.00 | 0.35 | 0.35 | 88 | 1015.4 |
| 20260502004903 | 39 | 0 | 0.0 | 0.0 | 0.00 | 0.35 | 0.35 | 88 | 1015.3 |
| 20260502004403 | 39 | 0 | 0.0 | 0.0 | 0.00 | 0.35 | 0.35 | 86 | 1015.2 |
| 20260502004324 | 39 | 0 | 0.0 | 0.0 | 0.00 | 0.35 | 0.35 | 86 | 1015.3 |
| 20260502004103 | 39 | 0 | 0.0 | 0.0 | 0.00 | 0.35 | 0.35 | 85 | 1015.1 |
| 20260502003803 | 40 | 0 | 0.0 | 0.0 | 0.00 | 0.35 | 0.35 | 85 | 1015.0 |
| 20260502003603 | 40 | 0 | 0.0 | 0.0 | 0.00 | 0.35 | 0.35 | 85 | 1015.0 |
| 20260502003103 | 40 | 0 | 0.0 | 0.0 | 0.00 | 0.35 | 0.35 | 83 | 1014.9 |
| 20260502003003 | 40 | 0 | 0.0 | 0.0 | 0.00 | 0.35 | 0.35 | 83 | 1014.8 |
| 20260502002624 | 40 | 0 | 0.0 | 0.0 | 0.00 | 0.35 | 0.35 | 82 | 1014.9 |
| 20260502002103 | 41 | 77 | 0.0 | 1.0 | 0.00 | 0.35 | 0.35 | 81 | 1014.7 |
| 20260502002003 | 41 | 69 | 0.0 | 1.0 | 0.00 | 0.35 | 0.35 | 81 | 1014.7 |
| 20260502001903 | 41 | 69 | 0.0 | 1.0 | 0.00 | 0.35 | 0.35 | 81 | 1014.7 |
| 20260502001803 | 41 | 67 | 0.0 | 1.0 | 0.00 | 0.35 | 0.35 | 81 | 1014.9 |
| 20260502001603 | 41 | 81 | 0.0 | 1.0 | 0.00 | 0.35 | 0.35 | 80 | 1014.6 |
| 20260502001403 | 41 | 87 | 0.0 | 1.0 | 0.00 | 0.35 | 0.35 | 80 | 1014.7 |
| 20260502001324 | 41 | 81 | 0.0 | 1.0 | 0.00 | 0.35 | 0.35 | 80 | 1014.8 |
| 20260502001103 | 41 | 80 | 0.0 | 2.0 | 0.00 | 0.35 | 0.35 | 80 | 1014.6 |
| 20260502000903 | 42 | 68 | 1.0 | 3.0 | 0.00 | 0.35 | 0.35 | 79 | 1014.6 |
| 20260502000603 | 42 | 56 | 1.0 | 3.0 | 0.00 | 0.35 | 0.35 | 79 | 1014.8 |
| 20260502000524 | 42 | 63 | 1.0 | 3.0 | 0.00 | 0.35 | 0.35 | 79 | 1014.5 |
| 20260502000403 | 42 | 69 | 1.0 | 3.0 | 0.00 | 0.35 | 0.35 | 78 | 1014.8 |
| 20260501235703 | 42 | 86 | 1.0 | 2.0 | 0.00 | 0.35 | 0.35 | 77 | 1014.6 |
| 20260501235624 | 42 | 93 | 1.0 | 2.0 | 0.00 | 0.35 | 0.35 | 78 | 1014.6 |
| 20260501235503 | 43 | 96 | 0.0 | 2.0 | 0.00 | 0.35 | 0.35 | 77 | 1014.7 |
| 20260501235403 | 43 | 109 | 0.0 | 2.0 | 0.00 | 0.35 | 0.35 | 77 | 1014.7 |
| 20260501235103 | 43 | 103 | 0.0 | 2.0 | 0.00 | 0.35 | 0.35 | 77 | 1014.5 |
| 20260501235003 | 44 | 111 | 1.0 | 4.0 | 0.00 | 0.35 | 0.35 | 78 | 1014.4 |
| 20260501234703 | 43 | 151 | 1.0 | 4.0 | 0.00 | 0.35 | 0.35 | 78 | 1014.5 |
| 20260501234603 | 43 | 162 | 1.0 | 4.0 | 0.00 | 0.35 | 0.35 | 78 | 1014.5 |
| 20260501234424 | 43 | 199 | 1.0 | 4.0 | 0.00 | 0.35 | 0.35 | 77 | 1014.5 |
| 20260501234103 | 42 | 79 | 1.0 | 4.0 | 0.00 | 0.35 | 0.35 | 77 | 1014.4 |
| 20260501234003 | 42 | 58 | 1.0 | 3.0 | 0.00 | 0.35 | 0.35 | 77 | 1014.4 |
| 20260501233503 | 42 | 35 | 1.0 | 3.0 | 0.00 | 0.35 | 0.35 | 77 | 1014.6 |
| 20260501233203 | 42 | 13 | 2.0 | 6.0 | 0.00 | 0.35 | 0.35 | 77 | 1014.7 |
| 20260501232703 | 42 | 29 | 2.0 | 6.0 | 0.00 | 0.35 | 0.35 | 77 | 1014.5 |
| 20260501232603 | 42 | 20 | 2.0 | 6.0 | 0.00 | 0.35 | 0.35 | 76 | 1014.6 |
| 20260501232403 | 42 | 18 | 2.0 | 6.0 | 0.00 | 0.35 | 0.35 | 76 | 1014.4 |
| 20260501232305 | 42 | 36 | 2.0 | 6.0 | 0.00 | 0.35 | 0.35 | 76 | 1014.6 |
| 20260501232103 | 42 | 29 | 2.0 | 4.0 | 0.00 | 0.35 | 0.35 | 76 | 1014.6 |
| 20260501231924 | 43 | 41 | 2.0 | 4.0 | 0.00 | 0.35 | 0.35 | 76 | 1014.6 |
| 20260501231803 | 43 | 39 | 2.0 | 4.0 | 0.00 | 0.35 | 0.35 | 76 | 1014.5 |
| 20260501231703 | 43 | 15 | 2.0 | 6.0 | 0.00 | 0.35 | 0.35 | 75 | 1014.5 |
| 20260501231603 | 43 | 46 | 2.0 | 6.0 | 0.00 | 0.35 | 0.35 | 76 | 1014.5 |
| 20260501231503 | 43 | 46 | 2.0 | 6.0 | 0.00 | 0.35 | 0.35 | 76 | 1014.5 |
| 20260501231304 | 43 | 60 | 2.0 | 6.0 | 0.00 | 0.35 | 0.35 | 76 | 1014.4 |
| 20260501231103 | 43 | 75 | 2.0 | 6.0 | 0.00 | 0.35 | 0.35 | 75 | 1014.5 |
| 20260501231003 | 43 | 28 | 2.0 | 7.0 | 0.00 | 0.35 | 0.35 | 75 | 1014.3 |
| 20260501230803 | 43 | 12 | 3.0 | 7.0 | 0.00 | 0.35 | 0.35 | 74 | 1014.5 |
| 20260501230603 | 43 | 13 | 3.0 | 7.0 | 0.00 | 0.35 | 0.35 | 74 | 1014.4 |
| 20260501230403 | 43 | 351 | 3.0 | 7.0 | 0.00 | 0.35 | 0.35 | 74 | 1014.3 |
| 20260501225903 | 44 | 17 | 2.0 | 6.0 | 0.00 | 0.35 | 0.35 | 73 | 1014.3 |
| 20260501225703 | 45 | 1 | 2.0 | 6.0 | 0.00 | 0.35 | 0.35 | 72 | 1014.2 |
| 20260501225603 | 46 | 14 | 2.0 | 6.0 | 0.00 | 0.35 | 0.35 | 71 | 1014.3 |
| 20260501225403 | 45 | 41 | 2.0 | 4.0 | 0.00 | 0.35 | 0.35 | 74 | 1014.4 |
| 20260501225103 | 45 | 94 | 2.0 | 4.0 | 0.00 | 0.35 | 0.35 | 75 | 1014.4 |
| 20260501224503 | 44 | 46 | 1.0 | 6.0 | 0.00 | 0.35 | 0.35 | 77 | 1014.1 |
| 20260501224403 | 44 | 48 | 2.0 | 6.0 | 0.00 | 0.35 | 0.35 | 76 | 1014.1 |
| 20260501224103 | 44 | 35 | 2.0 | 6.0 | 0.00 | 0.35 | 0.35 | 76 | 1014.0 |
| 20260501224024 | 44 | 34 | 2.0 | 6.0 | 0.00 | 0.35 | 0.35 | 76 | 1013.9 |
| 20260501223903 | 44 | 27 | 2.0 | 6.0 | 0.00 | 0.35 | 0.35 | 76 | 1014.0 |
| 20260501223824 | 44 | 34 | 2.0 | 6.0 | 0.00 | 0.35 | 0.35 | 76 | 1014.0 |
| 20260501223724 | 44 | 42 | 2.0 | 6.0 | 0.00 | 0.35 | 0.35 | 77 | 1013.8 |
| 20260501223603 | 44 | 41 | 2.0 | 6.0 | 0.00 | 0.35 | 0.35 | 77 | 1014.1 |
| 20260501223203 | 44 | 53 | 2.0 | 4.0 | 0.00 | 0.35 | 0.35 | 77 | 1013.8 |
| 20260501223103 | 44 | 60 | 2.0 | 4.0 | 0.00 | 0.35 | 0.35 | 77 | 1013.9 |
| 20260501223003 | 44 | 64 | 2.0 | 4.0 | 0.00 | 0.35 | 0.35 | 77 | 1014.1 |
| 20260501222903 | 44 | 76 | 2.0 | 4.0 | 0.00 | 0.35 | 0.35 | 77 | 1013.9 |
| 20260501222803 | 44 | 81 | 2.0 | 4.0 | 0.00 | 0.35 | 0.35 | 78 | 1013.8 |
| 20260501222603 | 43 | 89 | 2.0 | 4.0 | 0.00 | 0.35 | 0.35 | 78 | 1013.9 |
| 20260501222424 | 43 | 82 | 2.0 | 4.0 | 0.00 | 0.35 | 0.35 | 78 | 1014.0 |
| 20260501222203 | 43 | 78 | 2.0 | 4.0 | 0.00 | 0.35 | 0.35 | 79 | 1013.9 |
| 20260501222103 | 43 | 74 | 2.0 | 6.0 | 0.00 | 0.35 | 0.35 | 79 | 1014.0 |
| 20260501221803 | 43 | 46 | 3.0 | 8.0 | 0.00 | 0.35 | 0.35 | 78 | 1014.0 |
| 20260501221603 | 43 | 32 | 2.0 | 8.0 | 0.00 | 0.35 | 0.35 | 79 | 1014.1 |
| 20260501221224 | 43 | 41 | 2.0 | 8.0 | 0.00 | 0.35 | 0.35 | 79 | 1014.0 |
| 20260501220903 | 43 | 55 | 2.0 | 8.0 | 0.00 | 0.35 | 0.35 | 79 | 1014.1 |
| 20260501220803 | 43 | 68 | 2.0 | 4.0 | 0.00 | 0.35 | 0.35 | 80 | 1014.1 |
| 20260501220503 | 43 | 44 | 2.0 | 9.0 | 0.00 | 0.35 | 0.35 | 80 | 1014.1 |
| 20260501220403 | 43 | 43 | 2.0 | 9.0 | 0.00 | 0.35 | 0.35 | 80 | 1014.1 |
| 20260501220303 | 43 | 36 | 2.0 | 9.0 | 0.00 | 0.35 | 0.35 | 81 | 1014.2 |
| 20260501220124 | 43 | 23 | 3.0 | 9.0 | 0.00 | 0.35 | 0.35 | 80 | 1014.0 |
| 20260501220003 | 43 | 15 | 3.0 | 9.0 | 0.00 | 0.35 | 0.35 | 79 | 1013.9 |
| 20260501215403 | 43 | 15 | 4.0 | 9.0 | 0.00 | 0.35 | 0.35 | 79 | 1014.1 |
| 20260501215203 | 43 | 26 | 3.0 | 9.0 | 0.00 | 0.35 | 0.35 | 80 | 1014.0 |
| 20260501215103 | 43 | 31 | 3.0 | 9.0 | 0.00 | 0.35 | 0.35 | 80 | 1014.1 |
| 20260501214724 | 43 | 37 | 3.0 | 9.0 | 0.00 | 0.35 | 0.35 | 80 | 1013.8 |
| 20260501214603 | 43 | 39 | 3.0 | 9.0 | 0.00 | 0.35 | 0.35 | 80 | 1013.8 |
| 20260501214403 | 44 | 44 | 2.0 | 8.0 | 0.00 | 0.35 | 0.35 | 82 | 1013.9 |
| 20260501214103 | 43 | 22 | 3.0 | 8.0 | 0.00 | 0.35 | 0.35 | 81 | 1013.9 |
| 20260501213903 | 43 | 20 | 3.0 | 8.0 | 0.00 | 0.35 | 0.35 | 80 | 1014.0 |
| 20260501213603 | 43 | 13 | 3.0 | 8.0 | 0.00 | 0.35 | 0.35 | 81 | 1014.0 |
| 20260501213403 | 43 | 19 | 3.0 | 8.0 | 0.00 | 0.35 | 0.35 | 81 | 1014.0 |
| 20260501213303 | 43 | 20 | 3.0 | 8.0 | 0.00 | 0.35 | 0.35 | 81 | 1013.8 |
| 20260501213103 | 43 | 32 | 2.0 | 8.0 | 0.00 | 0.35 | 0.35 | 82 | 1014.0 |
| 20260501212903 | 43 | 44 | 2.0 | 8.0 | 0.00 | 0.35 | 0.35 | 83 | 1013.9 |
| 20260501212624 | 43 | 43 | 2.0 | 6.0 | 0.00 | 0.35 | 0.35 | 85 | 1013.8 |
| 20260501212403 | 43 | 41 | 2.0 | 6.0 | 0.00 | 0.35 | 0.35 | 85 | 1014.0 |
| 20260501212305 | 43 | 41 | 2.0 | 6.0 | 0.00 | 0.35 | 0.35 | 85 | 1013.9 |
| 20260501212103 | 42 | 36 | 3.0 | 7.0 | 0.00 | 0.35 | 0.35 | 85 | 1013.9 |
| 20260501211903 | 42 | 23 | 3.0 | 9.0 | 0.00 | 0.35 | 0.35 | 86 | 1013.8 |
| 20260501211703 | 42 | 28 | 3.0 | 9.0 | 0.00 | 0.35 | 0.35 | 86 | 1013.8 |
| 20260501211503 | 42 | 20 | 3.0 | 9.0 | 0.00 | 0.35 | 0.35 | 86 | 1013.9 |
| 20260501211403 | 41 | 22 | 3.0 | 9.0 | 0.00 | 0.35 | 0.35 | 86 | 1013.8 |
| 20260501211103 | 41 | 19 | 3.0 | 9.0 | 0.01 | 0.35 | 0.35 | 87 | 1013.9 |
| 20260501210903 | 42 | 30 | 2.0 | 9.0 | 0.01 | 0.35 | 0.35 | 87 | 1013.9 |
| 20260501210803 | 41 | 37 | 2.0 | 7.0 | 0.01 | 0.35 | 0.35 | 87 | 1013.8 |
| 20260501210603 | 41 | 43 | 2.0 | 7.0 | 0.01 | 0.35 | 0.35 | 88 | 1013.7 |
| 20260501210124 | 42 | 58 | 2.0 | 4.0 | 0.01 | 0.35 | 0.35 | 89 | 1013.7 |
| 20260501210003 | 42 | 49 | 2.0 | 6.0 | 0.01 | 0.35 | 0.35 | 89 | 1013.6 |
| 20260501205503 | 41 | 41 | 3.0 | 8.0 | 0.01 | 0.35 | 0.35 | 90 | 1013.6 |
| 20260501205306 | 41 | 32 | 3.0 | 8.0 | 0.01 | 0.35 | 0.35 | 90 | 1013.7 |
| 20260501204803 | 41 | 42 | 2.0 | 8.0 | 0.01 | 0.35 | 0.35 | 91 | 1013.6 |
| 20260501204603 | 41 | 48 | 2.0 | 8.0 | 0.01 | 0.35 | 0.35 | 91 | 1013.3 |
| 20260501204403 | 41 | 64 | 1.0 | 4.0 | 0.01 | 0.35 | 0.35 | 92 | 1013.7 |
| 20260501204203 | 41 | 66 | 2.0 | 4.0 | 0.01 | 0.35 | 0.35 | 92 | 1013.6 |
| 20260501204103 | 41 | 62 | 2.0 | 4.0 | 0.01 | 0.35 | 0.35 | 92 | 1013.4 |
| 20260501203924 | 41 | 60 | 2.0 | 4.0 | 0.01 | 0.35 | 0.35 | 92 | 1013.5 |
| 20260501203703 | 41 | 66 | 2.0 | 6.0 | 0.01 | 0.35 | 0.35 | 92 | 1013.6 |
| 20260501203603 | 41 | 53 | 2.0 | 8.0 | 0.01 | 0.35 | 0.35 | 92 | 1013.7 |
| 20260501203403 | 40 | 29 | 3.0 | 11.0 | 0.01 | 0.35 | 0.35 | 92 | 1013.5 |
| 20260501203103 | 40 | 30 | 3.0 | 11.0 | 0.01 | 0.35 | 0.35 | 92 | 1013.4 |
| 20260501203024 | 40 | 25 | 3.0 | 11.0 | 0.01 | 0.35 | 0.35 | 91 | 1013.5 |
| 20260501202603 | 40 | 13 | 4.0 | 11.0 | 0.01 | 0.35 | 0.35 | 91 | 1013.7 |
| 20260501202524 | 40 | 10 | 4.0 | 11.0 | 0.01 | 0.35 | 0.35 | 91 | 1013.6 |
| 20260501202103 | 40 | 12 | 4.0 | 9.0 | 0.01 | 0.35 | 0.35 | 92 | 1013.8 |
| 20260501201703 | 40 | 4 | 4.0 | 11.0 | 0.01 | 0.35 | 0.35 | 92 | 1013.7 |
| 20260501201603 | 40 | 3 | 4.0 | 11.0 | 0.02 | 0.35 | 0.35 | 92 | 1013.6 |
| 20260501201403 | 40 | 1 | 4.0 | 11.0 | 0.02 | 0.35 | 0.35 | 92 | 1013.7 |
| 20260501201103 | 40 | 360 | 5.0 | 11.0 | 0.01 | 0.34 | 0.34 | 92 | 1013.6 |
| 20260501200603 | 40 | 8 | 4.0 | 9.0 | 0.01 | 0.34 | 0.34 | 92 | 1013.4 |
| 20260501200424 | 40 | 12 | 4.0 | 9.0 | 0.02 | 0.34 | 0.34 | 92 | 1013.4 |
| 20260501200303 | 40 | 8 | 4.0 | 9.0 | 0.02 | 0.34 | 0.34 | 92 | 1013.5 |
| 20260501195903 | 40 | 20 | 4.0 | 9.0 | 0.02 | 0.34 | 0.34 | 93 | 1013.4 |
| 20260501195624 | 40 | 30 | 3.0 | 8.0 | 0.02 | 0.34 | 0.34 | 93 | 1013.4 |
| 20260501195524 | 40 | 41 | 3.0 | 7.0 | 0.02 | 0.34 | 0.34 | 93 | 1013.3 |
| 20260501195403 | 41 | 38 | 3.0 | 7.0 | 0.02 | 0.34 | 0.34 | 93 | 1013.2 |
| 20260501195305 | 41 | 45 | 3.0 | 7.0 | 0.03 | 0.34 | 0.34 | 93 | 1013.4 |
| 20260501195124 | 41 | 56 | 2.0 | 7.0 | 0.03 | 0.34 | 0.34 | 93 | 1013.5 |
| 20260501195003 | 41 | 49 | 2.0 | 8.0 | 0.03 | 0.34 | 0.34 | 93 | 1013.2 |
| 20260501194803 | 41 | 47 | 2.0 | 8.0 | 0.03 | 0.34 | 0.34 | 93 | 1013.2 |
| 20260501194503 | 41 | 36 | 2.0 | 8.0 | 0.03 | 0.34 | 0.34 | 93 | 1013.1 |
| 20260501194303 | 41 | 33 | 2.0 | 9.0 | 0.03 | 0.34 | 0.34 | 93 | 1013.2 |
| 20260501194103 | 41 | 28 | 3.0 | 9.0 | 0.03 | 0.34 | 0.34 | 93 | 1013.1 |
| 20260501193803 | 41 | 18 | 3.0 | 9.0 | 0.03 | 0.34 | 0.34 | 93 | 1013.1 |
| 20260501193603 | 41 | 25 | 4.0 | 9.0 | 0.03 | 0.34 | 0.34 | 93 | 1013.3 |
| 20260501193303 | 41 | 27 | 4.0 | 11.0 | 0.03 | 0.34 | 0.34 | 93 | 1013.1 |
| 20260501193203 | 41 | 29 | 4.0 | 11.0 | 0.03 | 0.34 | 0.34 | 93 | 1013.0 |
| 20260501193124 | 41 | 27 | 4.0 | 11.0 | 0.03 | 0.34 | 0.34 | 93 | 1013.1 |
| 20260501192903 | 41 | 35 | 3.0 | 11.0 | 0.04 | 0.34 | 0.34 | 93 | 1013.1 |
| 20260501192503 | 41 | 23 | 4.0 | 13.0 | 0.04 | 0.34 | 0.34 | 93 | 1013.1 |
| 20260501192403 | 41 | 19 | 4.0 | 13.0 | 0.04 | 0.34 | 0.34 | 93 | 1012.8 |
| 20260501192103 | 41 | 21 | 3.0 | 13.0 | 0.04 | 0.34 | 0.34 | 93 | 1013.3 |
| 20260501191824 | 40 | 23 | 3.0 | 13.0 | 0.04 | 0.34 | 0.34 | 93 | 1013.0 |
| 20260501191703 | 41 | 23 | 3.0 | 13.0 | 0.04 | 0.34 | 0.34 | 93 | 1013.1 |
| 20260501191524 | 41 | 34 | 2.0 | 9.0 | 0.03 | 0.33 | 0.33 | 94 | 1013.1 |
| 20260501191103 | 41 | 43 | 2.0 | 9.0 | 0.03 | 0.33 | 0.33 | 94 | 1013.1 |
| 20260501191003 | 42 | 44 | 2.0 | 9.0 | 0.03 | 0.33 | 0.33 | 94 | 1013.2 |
| 20260501190903 | 41 | 71 | 1.0 | 4.0 | 0.03 | 0.33 | 0.33 | 94 | 1013.1 |
| 20260501190703 | 41 | 66 | 1.0 | 4.0 | 0.04 | 0.33 | 0.33 | 94 | 1013.0 |
| 20260501190403 | 42 | 69 | 1.0 | 6.0 | 0.03 | 0.32 | 0.32 | 94 | 1012.9 |
| 20260501190303 | 41 | 70 | 1.0 | 6.0 | 0.03 | 0.32 | 0.32 | 94 | 1013.0 |
| 20260501190003 | 41 | 73 | 1.0 | 6.0 | 0.03 | 0.32 | 0.32 | 94 | 1013.0 |
| 20260501185903 | 41 | 77 | 1.0 | 6.0 | 0.03 | 0.32 | 0.32 | 94 | 1012.9 |
| 20260501185603 | 41 | 76 | 1.0 | 4.0 | 0.04 | 0.32 | 0.32 | 94 | 1013.0 |
| 20260501185403 | 41 | 66 | 2.0 | 4.0 | 0.04 | 0.32 | 0.32 | 94 | 1013.1 |
| 20260501185103 | 41 | 66 | 2.0 | 4.0 | 0.03 | 0.31 | 0.31 | 94 | 1013.1 |
| 20260501185003 | 41 | 61 | 2.0 | 4.0 | 0.03 | 0.31 | 0.31 | 94 | 1013.0 |
| 20260501184703 | 41 | 51 | 2.0 | 4.0 | 0.03 | 0.31 | 0.31 | 94 | 1012.8 |
| 20260501184603 | 41 | 49 | 2.0 | 4.0 | 0.03 | 0.31 | 0.31 | 94 | 1012.9 |
| 20260501183924 | 41 | 45 | 2.0 | 7.0 | 0.04 | 0.31 | 0.31 | 94 | 1013.0 |
| 20260501183803 | 41 | 33 | 3.0 | 7.0 | 0.04 | 0.31 | 0.31 | 93 | 1012.8 |
| 20260501183603 | 41 | 41 | 3.0 | 7.0 | 0.04 | 0.31 | 0.31 | 94 | 1012.8 |
| 20260501183503 | 41 | 40 | 2.0 | 7.0 | 0.04 | 0.31 | 0.31 | 93 | 1012.8 |
| 20260501183203 | 41 | 38 | 3.0 | 7.0 | 0.04 | 0.31 | 0.31 | 93 | 1012.7 |
| 20260501183003 | 41 | 36 | 3.0 | 8.0 | 0.04 | 0.31 | 0.31 | 93 | 1012.9 |
| 20260501182903 | 42 | 39 | 3.0 | 8.0 | 0.03 | 0.30 | 0.30 | 93 | 1012.7 |
| 20260501182403 | 41 | 28 | 3.0 | 10.0 | 0.03 | 0.30 | 0.30 | 93 | 1012.7 |
| 20260501182306 | 41 | 26 | 3.0 | 10.0 | 0.03 | 0.30 | 0.30 | 93 | 1012.6 |
| 20260501182103 | 41 | 17 | 3.0 | 10.0 | 0.03 | 0.30 | 0.30 | 93 | 1012.6 |
| 20260501181903 | 41 | 18 | 3.0 | 10.0 | 0.04 | 0.30 | 0.30 | 93 | 1012.6 |
| 20260501181703 | 41 | 29 | 2.0 | 6.0 | 0.04 | 0.30 | 0.30 | 93 | 1012.7 |
| 20260501181303 | 42 | 45 | 2.0 | 6.0 | 0.04 | 0.30 | 0.30 | 93 | 1012.7 |
| 20260501181124 | 42 | 51 | 2.0 | 8.0 | 0.04 | 0.30 | 0.30 | 93 | 1012.6 |
| 20260501181003 | 42 | 47 | 2.0 | 8.0 | 0.04 | 0.30 | 0.30 | 94 | 1012.5 |
| 20260501180903 | 42 | 46 | 2.0 | 8.0 | 0.04 | 0.30 | 0.30 | 93 | 1012.4 |
| 20260501180703 | 42 | 45 | 2.0 | 8.0 | 0.03 | 0.29 | 0.29 | 93 | 1012.7 |
| 20260501180603 | 41 | 46 | 2.0 | 8.0 | 0.03 | 0.29 | 0.29 | 93 | 1012.6 |
| 20260501180224 | 42 | 46 | 2.0 | 8.0 | 0.04 | 0.29 | 0.29 | 93 | 1012.6 |
| 20260501180003 | 42 | 50 | 2.0 | 8.0 | 0.04 | 0.29 | 0.29 | 94 | 1012.6 |
| 20260501175724 | 42 | 50 | 2.0 | 8.0 | 0.03 | 0.28 | 0.28 | 94 | 1012.5 |
| 20260501175503 | 42 | 52 | 2.0 | 8.0 | 0.03 | 0.28 | 0.28 | 94 | 1012.3 |
| 20260501175403 | 42 | 49 | 2.0 | 8.0 | 0.03 | 0.28 | 0.28 | 94 | 1012.4 |
| 20260501175103 | 42 | 57 | 2.0 | 4.0 | 0.03 | 0.28 | 0.28 | 94 | 1012.4 |
| 20260501175003 | 42 | 59 | 2.0 | 4.0 | 0.03 | 0.28 | 0.28 | 94 | 1012.5 |
| 20260501174603 | 42 | 60 | 2.0 | 4.0 | 0.03 | 0.28 | 0.28 | 94 | 1012.4 |
| 20260501174403 | 42 | 60 | 2.0 | 4.0 | 0.02 | 0.27 | 0.27 | 94 | 1012.5 |
| 20260501174003 | 42 | 59 | 2.0 | 4.0 | 0.02 | 0.27 | 0.27 | 94 | 1012.5 |
| 20260501173803 | 41 | 67 | 2.0 | 6.0 | 0.02 | 0.27 | 0.27 | 94 | 1012.5 |
| 20260501173303 | 42 | 73 | 2.0 | 6.0 | 0.02 | 0.27 | 0.27 | 94 | 1012.6 |
| 20260501173103 | 42 | 65 | 2.0 | 6.0 | 0.02 | 0.27 | 0.27 | 94 | 1012.5 |
| 20260501173003 | 42 | 63 | 2.0 | 6.0 | 0.02 | 0.27 | 0.27 | 94 | 1012.4 |
| 20260501172903 | 42 | 63 | 2.0 | 6.0 | 0.02 | 0.27 | 0.27 | 94 | 1012.5 |
| 20260501172603 | 42 | 68 | 1.0 | 4.0 | 0.02 | 0.27 | 0.27 | 94 | 1012.3 |
| 20260501172203 | 42 | 58 | 2.0 | 6.0 | 0.03 | 0.27 | 0.27 | 94 | 1012.2 |
| 20260501172003 | 42 | 53 | 2.0 | 6.0 | 0.02 | 0.26 | 0.26 | 94 | 1012.4 |
| 20260501171803 | 42 | 51 | 2.0 | 6.0 | 0.02 | 0.26 | 0.26 | 94 | 1012.4 |
| 20260501171703 | 42 | 46 | 2.0 | 6.0 | 0.02 | 0.26 | 0.26 | 94 | 1012.5 |
| 20260501171603 | 42 | 47 | 2.0 | 6.0 | 0.02 | 0.26 | 0.26 | 94 | 1012.4 |
| 20260501171503 | 42 | 43 | 2.0 | 6.0 | 0.02 | 0.26 | 0.26 | 94 | 1012.4 |
| 20260501171403 | 42 | 41 | 2.0 | 6.0 | 0.02 | 0.26 | 0.26 | 94 | 1012.4 |
| 20260501171103 | 42 | 56 | 1.0 | 4.0 | 0.03 | 0.26 | 0.26 | 94 | 1012.3 |
| 20260501171003 | 42 | 55 | 1.0 | 4.0 | 0.03 | 0.26 | 0.26 | 94 | 1012.2 |
| 20260501170903 | 42 | 59 | 1.0 | 4.0 | 0.03 | 0.26 | 0.26 | 94 | 1012.2 |
| 20260501170603 | 43 | 60 | 1.0 | 6.0 | 0.04 | 0.26 | 0.26 | 94 | 1012.3 |
| 20260501170403 | 42 | 59 | 2.0 | 6.0 | 0.04 | 0.25 | 0.25 | 94 | 1012.4 |
| 20260501170303 | 42 | 58 | 2.0 | 6.0 | 0.04 | 0.25 | 0.25 | 94 | 1012.3 |
| 20260501170203 | 42 | 62 | 2.0 | 6.0 | 0.04 | 0.25 | 0.25 | 94 | 1012.0 |
| 20260501170124 | 42 | 59 | 2.0 | 6.0 | 0.04 | 0.25 | 0.25 | 94 | 1012.3 |
| 20260501165903 | 42 | 54 | 2.0 | 6.0 | 0.05 | 0.25 | 0.25 | 94 | 1012.0 |
| 20260501165603 | 42 | 57 | 2.0 | 6.0 | 0.06 | 0.25 | 0.25 | 94 | 1012.3 |
| 20260501165403 | 42 | 60 | 2.0 | 6.0 | 0.06 | 0.25 | 0.25 | 94 | 1012.3 |
| 20260501165203 | 42 | 59 | 2.0 | 6.0 | 0.07 | 0.25 | 0.25 | 94 | 1012.3 |
| 20260501164603 | 42 | 76 | 2.0 | 4.0 | 0.08 | 0.25 | 0.25 | 94 | 1012.5 |
| 20260501164503 | 42 | 54 | 2.0 | 8.0 | 0.08 | 0.25 | 0.25 | 94 | 1012.3 |
| 20260501164403 | 42 | 53 | 2.0 | 8.0 | 0.08 | 0.25 | 0.25 | 94 | 1012.2 |
| 20260501164203 | 42 | 46 | 2.0 | 8.0 | 0.09 | 0.25 | 0.25 | 94 | 1012.4 |